Wind_Speed
22 22 22 23 23 23 23 23 23 24 25 25 26 27 28 29 30 31 32 33 33 34 35 36 36 37 37 36 36 36 36 35 35 35 35 34 34 33 33 32 31 30 29 29 28 27 26 25 25 23 22 22 22 23 23 23 23 23 24 24 24 25 25 26 26 26 26 26 26
22 22 22 22 23 23 23 24 24 25 26 27 27 28 29 30 31 32 33 34 35 36 36 37 37 37 37 36 36 35 35 35 34 34 34 33 33 32 31 30 29 28 28 28 27 26 25 25 24 23 22 22 22 22 23 23 23 23 24 25 25 26 26 26 27 27 26 26 26
22 22 22 23 23 24 24 25 26 26 27 28 29 29 30 31 32 33 34 35 36 37 38 38 37 37 36 36 35 34 34 34 33 33 33 32 31 31 30 29 27 27 26 26 25 25 24 23 22 22 22 22 22 23 23 24 24 24 25 25 26 26 26 26 26 26 26 26 26
22 22 23 23 24 25 25 26 27 27 28 29 30 31 31 33 34 35 36 37 38 38 38 37 36 36 35 34 34 33 32 32 32 31 31 30 30 29 28 27 26 26 25 25 24 23 23 22 21 21 21 22 22 23 24 24 25 25 25 25 25 26 26 26 26 26 26 26 26
23 23 24 24 25 26 26 27 28 28 29 30 31 32 33 34 35 36 37 38 38 38 37 36 35 34 33 33 32 31 31 31 30 30 29 29 28 27 26 26 25 25 24 24 23 22 21 20 20 20 21 21 22 23 23 24 24 25 25 25 25 26 26 26 26 26 26 26 26
23 24 24 25 26 26 27 28 28 29 30 31 32 33 35 36 37 37 37 37 37 37 36 35 33 33 32 31 31 30 30 29 29 28 28 27 27 26 25 25 24 23 23 22 21 20 19 19 19 20 21 21 22 22 23 23 24 25 25 26 26 26 26 27 27 28 27 27 27
23 24 25 26 26 27 28 28 29 30 31 32 34 35 35 36 37 37 36 36 36 35 34 33 32 31 31 30 30 29 29 29 28 27 27 26 26 25 24 24 23 22 21 20 19 18 18 18 19 20 21 22 22 23 23 24 24 25 25 26 26 26 27 27 28 28 28 28 28
24 25 25 26 27 28 29 30 31 32 33 34 34 35 36 36 36 35 35 34 33 33 32 31 31 30 30 30 29 29 29 28 28 27 26 26 25 24 24 23 22 20 19 18 17 17 18 19 20 21 22 23 23 24 24 24 25 25 25 26 26 26 27 28 28 29 29 28 28
24 25 26 27 28 29 30 31 32 33 34 34 34 35 35 34 34 33 33 32 31 31 30 30 30 30 30 30 29 29 28 27 27 26 25 25 24 24 23 22 20 19 18 17 17 17 18 19 20 21 22 23 24 24 24 24 25 25 25 25 26 26 27 27 28 29 29 28 28
25 25 26 28 29 30 31 32 33 34 34 34 34 34 33 33 32 31 31 30 30 30 30 30 30 30 30 29 29 28 27 26 26 25 24 24 23 22 22 21 19 18 17 16 16 17 19 20 21 22 23 23 24 24 25 25 25 25 25 25 26 26 27 27 28 28 28 28 28
25 26 27 29 30 31 33 33 34 34 34 33 33 32 31 31 30 29 29 29 29 29 29 29 29 29 29 28 27 27 26 25 24 24 23 23 22 21 20 19 18 17 16 16 17 18 20 21 22 23 23 23 24 24 25 25 25 25 25 26 26 26 27 27 27 28 28 28 28
26 27 28 30 31 33 33 34 34 33 33 32 31 30 30 29 28 28 28 28 28 28 29 29 29 28 28 27 26 25 24 24 23 23 22 21 21 20 19 18 16 15 15 16 17 19 20 22 22 23 23 23 24 24 24 25 25 25 26 26 26 26 26 26 26 27 27 27 27
27 28 30 32 33 34 34 33 33 32 31 30 29 29 28 27 27 27 27 27 28 28 28 28 27 27 26 25 24 24 23 22 22 22 21 20 19 18 18 16 15 15 15 16 18 19 21 22 22 23 23 23 23 24 24 24 25 25 26 26 26 26 26 26 26 26 26 26 27
28 30 32 33 34 34 33 33 32 31 30 29 28 27 27 26 26 27 27 27 27 27 27 27 26 25 24 24 23 22 21 21 21 20 20 19 18 17 17 16 15 15 15 16 18 20 21 22 22 23 23 23 23 23 23 24 24 25 25 25 26 26 26 26 25 25 26 26 27
29 32 33 34 34 34 33 31 30 29 28 27 27 26 26 26 26 26 26 26 26 26 26 26 25 24 23 22 21 21 20 20 19 19 19 18 18 17 16 16 15 15 16 17 18 20 21 22 22 22 23 23 23 23 23 23 24 24 24 25 25 25 25 25 25 26 26 27 27
31 33 34 35 34 33 31 30 29 28 27 27 26 26 26 25 25 25 25 25 26 26 25 25 24 24 22 21 20 20 19 19 18 18 18 18 17 17 16 15 15 16 17 18 19 20 21 22 22 22 22 23 23 23 23 23 23 23 24 24 24 25 25 25 25 26 26 27 27
33 34 35 34 33 31 30 28 28 27 26 26 26 25 25 25 25 25 25 25 25 25 25 24 23 23 22 20 19 19 19 18 18 18 17 17 17 17 16 15 15 16 18 19 20 21 21 22 22 22 22 23 23 23 23 23 23 23 23 23 24 24 24 24 25 25 26 27 27
33 35 34 33 32 30 28 28 27 27 26 26 25 25 24 24 24 24 24 24 24 25 24 23 23 22 21 20 19 18 18 17 17 17 17 17 17 17 16 16 17 18 19 20 21 22 22 22 22 23 23 23 23 23 23 23 22 22 22 22 23 23 23 24 24 25 25 26 26
34 34 34 32 30 29 28 27 26 26 26 25 25 24 24 23 23 23 23 23 24 24 24 23 22 21 20 19 18 17 17 16 16 16 16 16 17 17 17 18 18 19 20 21 22 22 23 23 23 23 23 23 23 23 23 23 22 22 22 22 22 22 22 23 24 24 25 25 25
34 34 33 31 29 28 27 26 26 25 25 24 24 23 23 23 22 22 23 23 23 23 23 22 21 20 19 18 17 17 16 16 16 16 16 16 17 17 18 19 20 21 21 22 22 23 23 23 23 23 23 23 23 23 23 23 22 22 22 22 21 21 22 23 24 25 25 25 25
33 33 31 30 28 27 26 26 25 25 24 24 23 23 22 22 22 22 22 22 22 22 22 21 21 20 19 18 18 17 17 16 16 16 16 17 17 18 18 19 20 21 22 22 23 23 23 23 23 23 23 23 23 23 23 23 23 23 23 23 23 22 23 24 25 25 26 25 25
32 31 30 29 27 26 26 25 25 24 23 23 22 22 21 21 21 21 21 21 22 21 21 21 20 19 19 18 18 18 18 18 17 17 17 18 18 18 19 20 20 21 22 22 23 23 23 22 22 23 23 24 24 24 24 24 24 25 25 25 25 25 25 25 26 26 26 25 25
30 30 29 28 27 26 25 25 24 23 22 22 22 21 20 20 20 20 20 21 21 21 21 20 20 19 19 18 18 18 19 19 18 18 18 18 18 19 19 20 21 21 22 22 22 22 22 22 23 23 23 24 24 24 24 24 25 26 26 27 27 26 26 26 26 26 25 25 25
29 29 29 28 27 25 24 24 23 22 22 21 21 20 20 19 19 19 20 20 21 21 21 20 19 19 18 18 18 18 18 19 19 19 19 19 19 20 20 21 21 21 22 22 22 22 22 23 23 24 24 25 25 24 24 24 25 26 26 27 27 27 27 26 26 25 25 24 24
28 28 29 28 26 25 24 23 22 22 21 21 20 20 19 19 19 19 19 20 21 21 21 21 20 19 18 18 18 18 18 18 19 19 20 20 20 20 21 21 21 22 22 21 21 21 22 23 24 25 25 25 25 24 24 24 24 25 26 26 27 27 27 27 26 25 24 24 24
28 28 28 27 26 24 23 23 22 21 21 21 20 19 19 18 18 19 19 20 21 21 21 21 20 19 19 18 18 18 18 18 19 19 20 21 21 21 22 22 22 22 22 21 21 22 23 24 25 26 26 25 25 24 23 23 23 24 25 26 27 27 27 27 26 25 25 24 24
27 28 28 27 25 24 23 22 22 21 21 20 20 19 18 18 18 18 19 20 21 21 22 21 21 20 19 19 18 18 19 19 19 20 20 21 22 22 22 23 23 23 23 23 23 24 25 26 26 26 26 25 24 23 23 23 24 24 25 26 27 27 27 27 26 26 26 26 25
27 27 27 26 25 23 22 22 21 21 20 20 20 19 18 18 18 18 19 20 21 21 22 22 21 20 20 19 19 19 19 20 20 20 21 22 22 23 23 24 24 24 24 25 25 25 26 27 27 27 26 25 24 23 23 23 24 24 25 26 27 27 27 27 27 27 27 27 27
27 27 27 26 24 23 22 21 21 20 20 20 20 19 19 18 18 18 19 20 21 21 22 22 22 21 20 20 20 20 20 21 21 21 22 23 23 23 24 24 25 25 25 26 26 26 27 27 27 26 25 24 24 23 23 23 24 24 25 26 27 27 27 27 27 27 27 27 28
27 27 26 25 23 22 21 20 20 20 20 20 20 19 19 18 18 19 19 20 21 21 22 22 22 22 21 21 21 21 21 21 22 22 23 23 24 24 24 24 25 25 25 26 26 27 27 28 27 26 25 24 23 23 23 23 24 24 25 26 26 27 27 27 27 27 27 28 28
27 26 25 24 23 21 21 20 20 20 20 20 20 20 19 19 19 19 19 20 21 21 22 22 23 23 22 22 22 22 22 22 22 22 23 23 24 24 24 25 25 26 26 26 27 27 28 28 27 26 25 24 24 23 23 24 24 25 26 26 27 27 27 27 27 27 28 29 30
27 26 25 24 22 21 20 20 19 20 20 20 20 20 19 19 19 19 20 20 21 21 22 22 23 23 23 23 22 22 22 22 22 22 23 23 23 24 25 25 26 26 27 27 28 28 28 27 27 27 26 25 24 24 24 25 25 26 26 27 27 27 27 27 28 28 29 30 31
26 25 24 23 22 20 20 19 19 19 19 19 19 19 19 20 20 20 20 20 21 21 22 22 23 23 23 23 23 22 22 22 22 22 23 23 23 24 25 26 26 27 27 28 28 28 28 28 27 27 26 26 26 25 26 26 26 26 27 27 27 27 27 28 28 29 31 32 33
26 25 24 22 21 20 19 19 19 19 19 19 19 19 19 20 20 20 20 20 20 21 22 22 23 23 23 23 23 23 22 22 22 22 23 23 24 24 25 26 26 27 28 28 28 28 28 28 27 27 26 26 26 26 27 27 27 27 27 27 27 28 28 29 30 32 33 34 36
26 24 23 22 20 19 19 18 18 18 19 19 19 19 19 20 20 20 20 21 21 21 22 22 23 24 24 23 23 23 23 23 23 23 23 23 24 24 25 26 27 27 28 28 28 28 28 28 27 27 27 27 27 28 28 28 28 28 28 29 29 30 31 32 33 34 35 36 36
25 24 23 21 20 19 18 18 18 18 19 19 19 19 19 20 20 20 20 20 21 21 22 23 23 24 24 24 23 23 23 23 23 23 23 24 24 25 26 27 28 28 28 28 28 28 28 28 28 28 28 28 29 29 29 29 30 30 30 31 32 33 34 35 35 36 36 35 34
24 24 22 21 19 18 18 18 18 18 19 19 19 19 20 20 20 20 20 20 21 21 22 23 23 24 24 24 24 23 23 23 23 24 24 24 24 25 26 28 28 28 27 27 27 27 27 28 28 29 29 30 30 31 31 31 32 32 33 34 34 35 35 36 36 35 33 31 29
24 23 22 20 18 18 17 17 18 18 19 19 19 19 20 20 20 20 20 20 21 21 22 22 23 24 24 25 24 24 23 23 23 24 24 24 24 25 26 27 28 28 27 26 26 25 26 26 27 28 29 30 31 32 33 33 34 34 35 35 35 35 35 34 33 31 28 25 24
24 23 21 19 18 17 17 17 18 18 18 19 19 19 20 20 20 20 20 20 20 21 22 22 23 24 24 25 25 24 23 23 23 24 23 23 24 25 26 26 26 26 26 25 25 25 25 25 26 27 29 30 32 33 34 35 35 35 35 34 34 34 32 31 28 25 23 21 19
24 23 21 19 17 17 17 17 18 18 18 19 19 19 20 20 21 21 20 20 20 21 21 22 23 24 24 25 25 24 24 24 24 23 23 23 24 24 25 25 25 25 25 25 25 25 25 26 26 27 29 31 32 34 35 35 34 34 33 32 31 30 29 27 24 21 19 18 18
23 22 20 18 17 16 17 18 18 19 19 18 19 19 20 20 21 21 21 20 20 20 21 22 23 24 25 25 25 24 24 24 23 23 23 22 23 23 24 24 24 25 25 25 26 26 26 27 28 29 30 31 32 33 34 33 32 31 30 29 28 27 26 24 22 20 18 18 19
Wind_Direction
348 347 347 347 347 347 348 348 349 348 348 348 348 347 347 346 345 344 344 343 342 342 340 339 338 337 336 335 335 334 333 332 332 332 332 333 334 336 337 338 339 339 338 337 336 336 336 336 336 335 333 331 331 329 327 327 326 324 324 324 323 321 319 318 319 320 320 320 319
347 347 347 346 347 347 347 348 348 348 347 347 347 346 345 344 344 343 342 341 340 339 338 337 337 336 336 335 335 334 334 333 333 333 334 335 337 338 340 341 342 341 340 339 339 339 340 340 340 339 339 338 338 337 336 337 337 337 336 336 335 333 331 330 330 329 328 326 325
347 347 347 347 347 347 348 348 347 347 346 345 345 344 343 342 342 341 340 339 338 338 337 337 337 336 336 335 335 335 335 334 335 335 336 338 339 340 342 343 343 343 342 342 342 342 343 343 344 345 346 346 345 346 346 347 346 345 345 345 344 342 341 340 338 336 334 332 330
347 347 347 348 348 348 348 347 346 345 345 344 343 342 341 340 340 339 338 338 337 337 337 337 337 336 336 336 335 335 336 336 336 337 338 340 341 342 343 344 344 344 344 344 344 345 346 347 349 351 352 353 352 353 353 352 350 349 349 349 347 346 345 344 344 343 340 338 336
348 348 348 348 348 348 347 346 345 344 343 342 341 340 339 339 338 338 337 337 337 337 337 337 337 336 336 336 336 336 336 337 338 339 340 341 343 344 345 345 345 345 345 345 346 347 349 351 353 355 357 357 356 355 353 352 350 348 348 347 347 346 346 346 346 346 345 344 343
348 348 347 347 347 347 346 345 344 343 342 341 339 339 338 338 338 337 337 337 337 336 336 337 337 337 337 337 337 337 338 339 340 341 343 343 344 345 346 346 346 346 346 347 348 349 351 354 355 356 357 357 355 353 351 349 347 345 344 344 344 345 345 346 346 347 347 347 347
348 348 348 347 347 346 345 344 343 342 341 340 339 339 338 338 337 337 337 336 336 337 337 338 338 338 338 338 338 339 340 341 342 343 344 345 345 345 346 346 347 346 346 347 348 349 352 354 355 355 354 354 352 351 349 347 344 342 341 341 342 343 344 345 346 346 347 347 347
348 348 348 347 346 346 345 344 343 341 340 339 339 338 338 337 337 337 336 337 337 338 338 339 339 339 339 339 340 340 341 342 343 344 345 345 345 345 345 346 346 346 346 346 347 348 350 353 353 353 352 351 350 348 347 345 343 340 339 339 339 341 342 344 344 345 346 347 347
349 349 349 348 346 345 344 343 341 340 339 339 338 338 337 337 337 337 337 338 339 339 339 340 340 340 340 340 340 341 342 343 344 345 345 345 345 344 344 344 344 344 344 344 345 346 348 349 350 350 350 349 348 346 345 343 341 339 338 337 337 339 340 341 343 344 345 346 347
350 350 349 347 345 344 343 341 340 339 338 338 337 337 337 337 337 338 339 340 340 340 341 341 341 340 340 340 341 341 342 344 345 346 346 345 344 343 342 341 340 340 340 342 343 344 345 347 348 348 348 347 346 344 342 341 339 338 337 336 336 337 338 340 342 343 345 346 347
350 349 348 346 344 343 341 340 338 338 337 337 337 337 337 338 339 340 340 341 342 342 342 342 342 341 341 341 341 342 343 344 346 346 346 345 343 341 339 337 336 336 337 339 342 343 344 345 345 346 345 345 344 343 341 340 338 337 336 336 336 337 338 340 342 344 345 346 347
350 348 346 344 342 341 339 338 337 337 337 337 337 338 339 340 341 341 342 343 343 343 343 343 343 342 341 341 342 343 344 345 346 346 345 343 341 338 335 333 332 332 334 338 340 342 342 343 343 344 344 344 343 342 341 340 338 338 337 337 337 338 339 341 343 344 345 346 346
348 346 344 342 341 339 338 337 337 337 337 338 339 340 341 342 342 343 344 344 345 344 344 344 344 343 342 342 343 343 344 345 346 345 343 341 338 335 331 327 326 328 331 335 338 339 340 341 342 342 343 344 344 343 342 341 340 340 340 339 339 340 341 342 343 344 345 345 345
346 344 343 341 340 339 338 337 337 338 339 340 341 342 343 344 344 345 345 346 346 346 345 345 344 344 343 343 342 343 344 345 345 344 342 338 335 330 326 323 322 323 327 332 335 337 337 338 340 341 343 344 344 345 345 344 343 343 342 341 341 340 341 342 343 343 344 344 344
345 344 342 341 340 339 338 339 339 340 342 343 344 344 345 345 345 346 346 347 347 347 346 346 345 344 343 343 342 343 344 345 345 344 342 338 334 329 325 321 320 321 325 329 332 334 335 336 338 339 341 343 344 345 346 345 345 344 343 342 341 340 340 341 341 341 342 342 341
345 344 343 342 341 340 340 341 342 343 344 345 345 345 345 346 346 346 347 347 347 347 347 346 345 344 343 343 343 343 344 346 346 345 343 340 336 332 328 324 322 323 325 328 331 332 334 335 336 337 338 340 342 344 344 345 344 343 342 341 340 339 339 339 339 339 338 338 338
345 345 344 343 342 342 342 343 343 344 345 345 346 346 346 346 346 347 347 348 347 347 347 347 345 344 343 343 344 345 347 347 347 346 345 342 340 336 333 330 328 328 329 331 332 333 333 334 334 334 335 337 339 341 341 341 341 340 339 338 337 337 336 336 335 335 335 334 334
346 346 346 345 344 343 343 344 344 345 345 346 346 346 346 346 346 347 347 347 348 348 347 346 345 344 343 343 344 347 348 347 346 346 345 344 341 339 337 335 334 334 334 335 335 334 333 332 332 332 332 334 335 337 337 337 337 335 334 333 332 332 332 332 332 331 331 330 330
347 347 347 346 345 344 344 344 344 345 346 346 346 346 345 345 346 346 347 347 348 348 347 346 344 343 342 342 343 345 345 344 343 342 342 342 341 340 338 337 337 337 337 337 336 334 331 330 329 329 330 331 332 333 333 333 332 331 329 328 327 327 328 329 329 328 328 327 326
348 348 347 346 345 344 343 344 344 345 345 345 345 345 344 344 344 346 347 348 348 348 347 345 343 341 340 339 339 340 339 338 337 337 338 340 340 339 339 338 338 338 337 336 334 331 329 327 326 327 328 329 330 330 330 329 328 327 325 323 323 323 325 326 326 326 326 325 324
348 348 347 346 345 344 343 343 343 344 344 344 344 343 342 343 344 345 347 347 348 348 346 344 341 339 337 336 335 334 333 332 331 332 334 336 338 339 338 337 337 336 335 334 332 329 327 326 326 326 327 328 328 327 326 326 325 324 323 323 322 322 323 323 324 324 324 324 324
348 347 346 345 344 343 342 342 342 343 343 342 342 341 341 341 342 344 346 347 347 347 345 343 340 338 336 334 332 331 330 329 330 331 333 335 337 338 338 337 336 335 334 333 332 329 328 327 327 327 327 327 327 326 324 323 322 323 323 323 323 323 322 322 322 322 323 324 324
347 346 345 344 343 341 341 341 341 341 341 340 339 339 339 340 341 343 345 346 346 345 344 342 340 337 335 334 332 331 330 330 331 332 334 336 337 337 337 336 335 335 334 334 333 331 330 329 329 328 328 327 326 325 323 322 321 322 322 323 323 323 322 322 321 322 323 324 324
345 344 343 342 341 340 339 339 339 339 339 338 337 336 337 338 340 342 343 344 344 343 342 341 339 337 336 334 333 333 333 332 333 333 335 336 336 336 336 335 334 334 334 334 333 332 331 330 330 329 328 327 325 324 321 320 319 318 319 320 321 323 323 322 322 321 322 323 323
343 342 341 341 339 338 337 337 337 337 337 336 335 335 335 336 338 341 342 343 343 342 341 340 339 337 336 336 335 335 334 333 333 333 334 334 335 335 335 334 334 333 333 333 332 332 331 331 330 329 328 326 325 322 319 317 315 314 314 316 319 321 322 322 321 321 321 321 322
341 340 340 339 338 336 335 335 335 335 334 334 333 333 333 335 338 340 341 342 342 342 341 340 339 337 337 336 335 335 334 333 333 333 333 334 334 335 335 334 333 333 332 331 330 330 330 330 330 329 328 326 324 321 317 313 310 309 310 313 316 319 321 321 320 319 319 319 319
340 339 338 337 336 335 334 333 333 333 332 332 331 331 332 334 337 339 340 340 341 341 341 340 339 338 336 335 335 335 335 334 334 334 334 335 335 336 335 335 334 333 332 330 329 329 328 329 329 328 327 325 322 319 315 311 309 309 310 312 315 318 319 319 319 318 318 318 318
338 338 337 336 334 333 332 331 331 330 330 329 329 330 331 334 336 337 338 339 340 340 341 340 340 338 337 335 335 335 336 336 336 336 336 336 336 336 335 335 334 333 331 330 328 327 327 327 327 326 325 322 320 318 316 313 312 312 313 314 316 317 318 318 317 317 317 318 318
337 336 336 334 332 331 330 329 328 328 328 327 327 328 330 332 334 335 336 337 338 340 341 340 339 338 337 336 336 336 336 337 337 337 337 336 336 335 335 333 332 331 330 328 327 327 326 326 326 324 322 320 319 318 317 316 316 316 316 316 316 316 316 316 316 317 317 317 317
336 335 334 333 331 329 328 326 326 325 325 325 326 327 329 331 332 333 334 335 337 339 340 340 339 338 337 336 335 335 336 336 336 336 335 334 334 333 332 331 330 329 328 327 326 326 326 326 325 324 322 320 319 319 319 318 317 317 316 315 314 314 314 314 315 316 316 315 315
334 334 333 331 329 327 326 324 323 323 323 323 325 326 328 329 330 331 333 334 335 337 338 338 338 337 336 335 335 334 334 334 334 333 332 331 331 331 330 328 328 327 326 326 326 326 326 326 326 324 323 322 321 320 319 318 317 316 316 315 314 314 314 315 315 314 314 313 313
333 333 332 330 328 326 324 322 321 321 321 322 323 324 326 327 329 330 331 332 333 335 336 337 337 336 335 335 334 333 332 332 331 329 329 328 329 328 327 326 326 326 325 325 326 326 327 327 326 325 324 323 322 320 319 318 318 317 317 316 316 315 315 315 314 313 312 311 310
332 332 330 329 327 324 322 320 319 318 319 320 321 323 324 326 327 329 329 330 331 333 334 335 335 335 335 334 333 332 331 330 328 327 326 326 326 325 325 325 326 326 326 325 325 326 326 326 326 325 324 323 322 321 320 320 320 319 319 318 317 317 316 315 313 312 310 310 309
331 330 329 327 325 322 320 317 316 316 317 318 319 321 323 325 326 327 327 328 329 331 332 333 334 334 334 333 332 331 329 328 327 326 325 324 324 324 324 325 326 326 326 325 325 325 325 325 325 325 325 324 323 323 323 323 322 322 321 320 318 317 315 314 312 310 309 309 308
330 329 328 326 323 320 317 316 315 315 315 317 318 320 322 323 324 325 325 326 327 329 330 331 332 333 333 333 332 330 329 328 327 326 324 324 323 324 324 325 326 326 326 325 325 325 325 326 326 326 326 326 325 325 325 325 324 323 322 320 318 316 314 312 311 310 309 309 309
329 328 327 324 322 318 316 314 314 314 315 316 318 319 320 321 322 323 323 324 325 327 328 330 331 332 333 332 332 331 329 328 326 325 324 323 323 323 324 325 325 326 326 326 326 326 326 327 327 327 327 327 326 326 325 325 324 322 320 319 317 315 314 312 311 311 311 312 312
328 327 326 323 320 317 315 313 313 313 314 315 316 318 318 319 320 321 322 323 324 325 327 328 330 332 332 333 332 331 329 327 325 324 323 323 323 323 323 324 325 326 326 326 327 328 328 328 328 328 327 327 326 325 324 323 322 320 319 317 316 315 314 314 314 314 315 316 317
327 326 325 322 319 316 314 313 313 313 314 314 315 316 316 317 319 320 322 323 324 324 325 327 329 331 332 332 332 331 328 326 324 323 322 322 321 321 322 323 324 325 326 327 328 329 329 329 328 327 326 325 325 323 322 321 320 319 318 318 317 316 316 316 317 319 321 323 325
326 325 323 320 317 315 314 313 312 312 312 312 313 314 315 316 318 320 322 323 323 323 324 326 328 330 331 331 331 329 326 323 322 321 321 321 321 321 322 323 325 326 327 328 328 328 328 327 327 326 325 323 323 322 321 320 320 320 319 319 319 319 319 321 323 326 329 332 334
324 324 321 317 315 314 314 312 311 309 309 309 310 312 313 316 318 320 322 322 322 321 322 325 328 329 330 330 329 327 324 321 320 320 321 321 321 321 323 324 326 327 327 328 328 327 327 326 325 324 323 322 321 320 320 320 321 321 321 321 322 323 325 327 331 334 337 339 340
323 322 320 316 314 313 313 311 309 306 305 306 308 310 313 316 318 320 321 321 320 320 321 324 327 328 329 328 327 325 322 321 320 320 320 321 321 322 323 325 326 327 327 327 327 326 326 325 324 323 322 321 320 320 320 321 322 324 325 326 327 329 331 333 336 339 341 342 343
Height
1540 1540 1539 1538 1537 1536 1536 1535 1534 1533 1532 1532 1531 1530 1529 1528 1527 1526 1525 1524 1523 1522 1521 1520 1519 1517 1516 1515 1514 1512 1511 1510 1509 1507 1506 1505 1503 1502 1501 1500 1498 1497 1496 1494 1493 1492 1491 1490 1489 1488 1487 1486 1485 1484 1482 1482 1481 1479 1478 1476 1475 1474 1473 1471 1470 1468 1467 1466 1464
1540 1539 1538 1537 1537 1536 1535 1534 1533 1532 1532 1531 1530 1529 1528 1527 1527 1525 1524 1523 1522 1521 1520 1519 1517 1516 1515 1513 1512 1511 1509 1508 1507 1506 1504 1503 1502 1501 1499 1498 1497 1496 1494 1493 1492 1491 1489 1488 1488 1487 1486 1484 1483 1482 1482 1480 1479 1478 1477 1475 1474 1473 1472 1470 1468 1467 1466 1465 1463
1539 1538 1537 1537 1536 1535 1534 1533 1532 1532 1531 1530 1529 1528 1527 1527 1526 1525 1523 1522 1521 1520 1518 1517 1516 1514 1513 1512 1510 1509 1508 1507 1505 1504 1503 1502 1501 1499 1498 1497 1496 1494 1493 1492 1491 1489 1488 1487 1487 1486 1484 1483 1482 1481 1480 1479 1478 1477 1476 1474 1473 1472 1470 1469 1468 1467 1466 1464 1463
1538 1537 1537 1536 1535 1534 1533 1533 1532 1531 1530 1529 1529 1528 1527 1526 1525 1523 1522 1521 1520 1518 1517 1516 1514 1513 1512 1510 1509 1508 1507 1506 1504 1503 1502 1501 1499 1498 1497 1496 1495 1493 1492 1491 1490 1489 1488 1487 1486 1485 1484 1483 1482 1480 1479 1478 1477 1476 1475 1474 1472 1471 1469 1468 1467 1466 1465 1463 1462
1537 1536 1536 1535 1534 1533 1533 1532 1531 1530 1530 1529 1528 1527 1526 1524 1523 1522 1521 1519 1518 1517 1516 1514 1513 1512 1510 1509 1508 1507 1506 1504 1503 1502 1501 1499 1498 1497 1496 1495 1494 1492 1491 1490 1489 1488 1487 1486 1485 1484 1483 1482 1481 1480 1479 1478 1477 1476 1474 1473 1472 1471 1469 1467 1466 1465 1464 1463 1461
1537 1536 1535 1534 1534 1533 1532 1531 1531 1530 1529 1528 1527 1525 1524 1523 1522 1521 1519 1518 1517 1516 1514 1513 1512 1511 1509 1508 1507 1506 1504 1503 1502 1501 1500 1498 1497 1496 1495 1494 1493 1492 1491 1490 1489 1488 1487 1486 1485 1484 1483 1482 1481 1480 1478 1477 1476 1475 1474 1472 1471 1470 1468 1467 1466 1465 1463 1462 1461
1536 1535 1534 1534 1533 1532 1532 1531 1530 1529 1528 1527 1525 1524 1523 1522 1520 1519 1518 1517 1516 1514 1513 1512 1510 1509 1508 1507 1506 1504 1503 1502 1501 1500 1499 1498 1497 1495 1494 1493 1492 1491 1490 1489 1488 1487 1486 1485 1484 1483 1482 1481 1480 1479 1478 1477 1476 1474 1473 1472 1471 1469 1468 1467 1465 1464 1463 1461 1460
1536 1535 1534 1533 1532 1532 1531 1530 1529 1527 1527 1525 1524 1522 1521 1520 1519 1518 1517 1515 1514 1513 1512 1510 1509 1508 1507 1506 1504 1503 1502 1501 1500 1499 1498 1497 1496 1495 1494 1493 1492 1491 1490 1489 1488 1487 1486 1485 1484 1483 1482 1481 1480 1478 1477 1477 1475 1474 1472 1471 1470 1469 1467 1466 1465 1463 1462 1461 1459
1535 1534 1533 1532 1532 1531 1530 1528 1527 1527 1525 1524 1523 1522 1520 1519 1518 1517 1515 1514 1513 1512 1511 1509 1508 1507 1506 1505 1503 1502 1501 1500 1499 1498 1497 1496 1495 1494 1493 1492 1491 1490 1489 1488 1487 1487 1486 1484 1483 1482 1482 1480 1479 1478 1477 1476 1475 1473 1472 1471 1469 1468 1467 1466 1464 1463 1462 1460 1459
1534 1533 1532 1532 1530 1529 1528 1527 1527 1525 1524 1523 1522 1520 1519 1518 1517 1515 1514 1513 1512 1511 1509 1508 1507 1506 1505 1504 1502 1502 1500 1499 1498 1497 1496 1495 1494 1493 1492 1492 1491 1490 1489 1488 1487 1486 1485 1484 1483 1482 1481 1480 1479 1477 1476 1475 1474 1473 1471 1470 1469 1468 1467 1465 1464 1462 1461 1459 1458
1533 1532 1532 1531 1530 1529 1528 1527 1525 1524 1523 1522 1521 1519 1518 1517 1516 1514 1513 1512 1511 1510 1508 1507 1506 1505 1504 1502 1502 1501 1500 1498 1497 1497 1496 1495 1494 1493 1492 1491 1490 1490 1489 1487 1487 1486 1485 1484 1482 1482 1481 1479 1478 1477 1476 1474 1473 1472 1471 1470 1468 1467 1466 1465 1463 1462 1460 1459 1458
1533 1532 1531 1530 1529 1528 1527 1526 1524 1523 1522 1521 1519 1518 1517 1516 1515 1513 1512 1511 1510 1509 1507 1506 1505 1504 1503 1502 1501 1500 1499 1498 1497 1496 1495 1494 1493 1493 1492 1491 1490 1489 1488 1487 1486 1485 1484 1483 1482 1481 1480 1479 1477 1477 1475 1474 1472 1472 1470 1469 1468 1467 1465 1464 1462 1461 1460 1458 1457
1532 1531 1530 1529 1528 1527 1526 1525 1523 1522 1521 1519 1518 1517 1516 1515 1514 1512 1511 1510 1509 1508 1507 1505 1504 1503 1502 1501 1500 1499 1498 1497 1496 1496 1495 1494 1493 1492 1492 1491 1490 1489 1488 1487 1486 1485 1484 1482 1481 1480 1479 1478 1477 1476 1475 1473 1472 1471 1470 1468 1467 1466 1465 1463 1462 1461 1459 1458 1457
1532 1531 1530 1528 1527 1526 1525 1523 1522 1521 1520 1518 1517 1516 1515 1514 1513 1512 1510 1509 1508 1507 1506 1505 1503 1502 1501 1500 1499 1498 1497 1497 1496 1495 1494 1493 1492 1492 1491 1490 1489 1489 1488 1487 1486 1484 1483 1482 1481 1480 1479 1477 1476 1475 1474 1473 1472 1470 1469 1468 1467 1465 1464 1463 1462 1460 1459 1457 1456
1531 1530 1529 1527 1526 1525 1523 1522 1521 1520 1519 1517 1517 1515 1514 1513 1512 1511 1510 1508 1507 1506 1505 1504 1503 1502 1501 1500 1499 1498 1497 1496 1495 1494 1493 1493 1492 1491 1490 1490 1489 1488 1487 1486 1485 1484 1483 1482 1480 1479 1478 1477 1476 1475 1473 1472 1471 1470 1468 1467 1466 1465 1463 1462 1461 1460 1458 1457 1456
1530 1529 1527 1526 1525 1524 1522 1521 1520 1519 1518 1517 1516 1514 1513 1512 1511 1510 1509 1508 1507 1505 1504 1503 1502 1501 1500 1499 1498 1497 1496 1495 1495 1494 1493 1492 1491 1491 1490 1489 1488 1487 1487 1485 1484 1483 1482 1481 1480 1479 1477 1476 1475 1474 1473 1472 1470 1469 1468 1467 1466 1464 1463 1462 1460 1459 1457 1456 1455
1529 1528 1527 1525 1524 1522 1521 1520 1519 1518 1517 1516 1515 1514 1512 1512 1510 1509 1508 1507 1506 1505 1504 1502 1502 1501 1499 1498 1497 1497 1496 1495 1494 1493 1492 1492 1491 1490 1489 1488 1487 1487 1486 1485 1484 1482 1482 1480 1479 1478 1477 1476 1474 1473 1472 1471 1470 1468 1467 1466 1465 1464 1462 1461 1460 1458 1457 1456 1454
1528 1527 1526 1524 1523 1522 1520 1519 1518 1517 1516 1515 1514 1513 1512 1511 1510 1508 1507 1507 1505 1504 1503 1502 1501 1500 1499 1498 1497 1496 1495 1494 1493 1493 1492 1491 1490 1489 1488 1488 1487 1486 1485 1484 1483 1482 1481 1480 1478 1477 1476 1475 1474 1472 1471 1470 1469 1468 1467 1465 1464 1463 1462 1460 1459 1457 1456 1455 1453
1527 1526 1524 1523 1522 1521 1520 1518 1517 1516 1515 1514 1513 1512 1511 1510 1509 1508 1507 1506 1505 1503 1502 1501 1500 1499 1498 1497 1497 1496 1495 1494 1493 1492 1492 1491 1490 1489 1488 1487 1486 1485 1484 1483 1482 1481 1480 1479 1478 1477 1475 1474 1473 1472 1471 1469 1468 1467 1466 1464 1463 1462 1461 1460 1458 1457 1456 1454 1453
1526 1525 1523 1522 1521 1520 1519 1517 1517 1516 1514 1513 1512 1512 1511 1509 1508 1507 1506 1505 1504 1503 1502 1501 1500 1499 1498 1497 1496 1495 1494 1493 1492 1492 1491 1490 1489 1488 1487 1486 1485 1484 1483 1482 1481 1480 1479 1478 1477 1476 1474 1473 1472 1471 1470 1468 1467 1466 1465 1463 1462 1461 1460 1459 1457 1456 1455 1453 1452
1525 1523 1522 1521 1520 1519 1518 1517 1516 1515 1514 1513 1512 1511 1510 1509 1508 1507 1506 1505 1503 1502 1501 1500 1499 1498 1497 1496 1495 1495 1494 1493 1492 1491 1490 1489 1488 1487 1487 1486 1485 1483 1482 1482 1481 1479 1478 1477 1476 1475 1473 1472 1471 1470 1468 1467 1466 1465 1464 1462 1461 1460 1459 1457 1457 1455 1454 1452 1451
1524 1522 1522 1520 1519 1518 1517 1516 1515 1514 1513 1512 1511 1510 1509 1508 1507 1506 1505 1504 1503 1502 1501 1500 1499 1498 1497 1496 1495 1494 1493 1492 1492 1491 1490 1488 1487 1487 1486 1485 1484 1482 1482 1481 1479 1478 1477 1476 1475 1474 1472 1471 1470 1469 1467 1466 1465 1463 1462 1461 1460 1459 1458 1457 1455 1454 1453 1451 1450
1523 1522 1521 1519 1518 1517 1516 1515 1514 1513 1512 1512 1511 1510 1509 1507 1507 1506 1504 1503 1502 1501 1500 1499 1498 1497 1496 1495 1494 1493 1492 1491 1491 1490 1489 1488 1487 1486 1485 1484 1483 1482 1481 1479 1478 1477 1476 1475 1474 1473 1472 1470 1469 1467 1466 1465 1463 1462 1461 1460 1459 1457 1456 1455 1454 1452 1451 1450 1449
1522 1521 1520 1518 1517 1517 1515 1515 1514 1513 1512 1511 1510 1509 1508 1507 1506 1505 1504 1503 1502 1501 1500 1499 1497 1497 1496 1495 1494 1493 1492 1491 1489 1488 1488 1487 1486 1485 1484 1483 1482 1481 1479 1478 1477 1476 1475 1474 1472 1472 1470 1469 1467 1466 1465 1463 1462 1461 1459 1458 1457 1456 1455 1454 1452 1451 1450 1449 1447
1521 1520 1519 1517 1517 1516 1515 1514 1513 1512 1511 1510 1509 1508 1507 1506 1505 1504 1503 1502 1501 1500 1499 1498 1497 1496 1495 1494 1493 1492 1491 1490 1489 1487 1487 1486 1485 1484 1483 1482 1481 1479 1478 1477 1476 1475 1474 1473 1472 1470 1469 1467 1466 1465 1463 1462 1461 1459 1458 1457 1455 1454 1453 1452 1451 1450 1448 1447 1446
1520 1519 1517 1517 1516 1515 1514 1513 1512 1511 1510 1509 1508 1507 1506 1505 1504 1503 1502 1501 1500 1499 1498 1497 1496 1495 1494 1493 1492 1491 1490 1489 1488 1487 1486 1484 1483 1482 1482 1480 1479 1478 1477 1476 1475 1474 1473 1472 1470 1469 1467 1466 1465 1463 1462 1461 1459 1458 1457 1455 1454 1452 1451 1450 1449 1448 1447 1446 1444
1519 1518 1517 1516 1515 1514 1513 1512 1511 1510 1509 1508 1507 1506 1505 1504 1503 1502 1501 1500 1499 1498 1497 1496 1495 1494 1493 1492 1491 1490 1489 1488 1487 1486 1485 1483 1482 1481 1480 1479 1478 1477 1476 1475 1474 1473 1472 1470 1469 1467 1466 1465 1463 1462 1461 1459 1458 1457 1455 1454 1452 1451 1450 1448 1447 1446 1445 1444 1442
1518 1517 1516 1515 1513 1512 1512 1511 1510 1509 1508 1507 1506 1505 1504 1503 1502 1501 1500 1499 1498 1497 1496 1495 1494 1493 1492 1491 1490 1489 1488 1487 1486 1485 1483 1482 1481 1480 1479 1478 1477 1476 1475 1474 1472 1471 1470 1469 1467 1466 1465 1463 1462 1461 1459 1458 1457 1455 1454 1452 1451 1450 1448 1447 1446 1444 1443 1442 1440
1517 1516 1515 1514 1512 1512 1511 1510 1509 1508 1507 1506 1505 1504 1503 1502 1502 1500 1499 1498 1497 1496 1495 1494 1493 1492 1491 1490 1489 1488 1487 1486 1485 1483 1482 1481 1480 1479 1478 1477 1476 1475 1473 1472 1471 1470 1469 1467 1466 1465 1463 1462 1461 1459 1458 1457 1456 1454 1453 1451 1450 1448 1447 1445 1444 1442 1441 1439 1438
1516 1515 1514 1512 1512 1510 1509 1508 1507 1507 1506 1505 1504 1503 1502 1501 1500 1499 1498 1497 1496 1495 1494 1493 1492 1491 1490 1489 1488 1487 1486 1485 1483 1482 1481 1480 1479 1478 1477 1476 1474 1473 1472 1471 1470 1468 1467 1466 1465 1463 1462 1461 1460 1458 1457 1456 1454 1453 1452 1450 1448 1447 1445 1444 1442 1441 1439 1438 1436
1515 1514 1512 1512 1510 1509 1508 1507 1507 1506 1505 1504 1503 1502 1501 1500 1499 1498 1497 1497 1495 1494 1493 1492 1491 1490 1489 1488 1487 1486 1485 1483 1482 1481 1480 1479 1478 1477 1476 1474 1473 1472 1471 1470 1468 1467 1466 1465 1463 1462 1461 1460 1458 1457 1456 1455 1453 1452 1450 1449 1447 1446 1444 1442 1441 1439 1438 1436 1435
1514 1512 1511 1510 1509 1508 1507 1506 1505 1505 1504 1503 1502 1501 1500 1499 1498 1498 1497 1496 1494 1493 1492 1491 1490 1489 1488 1487 1486 1485 1483 1482 1481 1480 1479 1478 1477 1476 1474 1473 1472 1471 1469 1468 1467 1466 1464 1463 1462 1461 1459 1458 1457 1456 1454 1453 1452 1450 1449 1447 1446 1444 1442 1441 1440 1438 1437 1435 1433
1512 1511 1510 1509 1508 1507 1506 1505 1504 1503 1502 1502 1501 1500 1499 1498 1497 1497 1496 1495 1494 1492 1492 1490 1489 1488 1487 1486 1485 1483 1482 1481 1480 1479 1478 1477 1476 1474 1473 1472 1471 1469 1468 1467 1465 1464 1463 1462 1461 1459 1458 1457 1455 1454 1453 1452 1450 1449 1447 1446 1444 1443 1442 1440 1438 1437 1435 1433 1431
1511 1510 1509 1508 1507 1506 1505 1504 1503 1502 1502 1501 1500 1499 1498 1497 1497 1496 1495 1494 1493 1492 1491 1490 1488 1487 1486 1485 1484 1482 1481 1480 1479 1478 1477 1476 1475 1473 1472 1471 1470 1468 1467 1465 1464 1462 1462 1460 1459 1457 1456 1455 1453 1452 1451 1450 1448 1447 1446 1444 1443 1442 1440 1438 1437 1435 1433 1431 1429
1510 1509 1508 1507 1506 1505 1504 1503 1502 1501 1501 1500 1499 1498 1497 1497 1496 1495 1493 1492 1492 1491 1490 1489 1488 1487 1485 1484 1483 1482 1480 1479 1478 1477 1476 1475 1473 1472 1471 1469 1468 1467 1466 1464 1462 1461 1460 1458 1457 1456 1454 1453 1452 1450 1449 1447 1446 1445 1444 1442 1441 1440 1438 1437 1435 1433 1431 1429 1427
1509 1507 1507 1505 1504 1504 1503 1502 1501 1500 1499 1499 1498 1497 1496 1495 1495 1494 1493 1492 1491 1490 1489 1488 1487 1486 1484 1483 1482 1481 1479 1478 1477 1476 1475 1473 1472 1471 1469 1468 1467 1466 1465 1463 1461 1460 1458 1456 1455 1454 1452 1451 1450 1448 1447 1446 1444 1443 1442 1440 1439 1437 1436 1434 1432 1430 1428 1427 1424
1507 1506 1505 1504 1503 1502 1502 1501 1500 1499 1498 1497 1497 1496 1495 1494 1493 1492 1492 1491 1490 1488 1487 1487 1486 1484 1483 1482 1481 1480 1478 1477 1476 1475 1473 1472 1471 1470 1468 1467 1466 1465 1463 1462 1460 1458 1457 1455 1453 1452 1450 1449 1447 1446 1445 1443 1442 1441 1439 1438 1436 1435 1433 1431 1429 1427 1426 1424 1422
1506 1505 1504 1503 1502 1501 1500 1500 1499 1498 1497 1497 1496 1495 1494 1493 1492 1492 1491 1490 1489 1487 1487 1486 1484 1483 1482 1481 1480 1479 1477 1476 1475 1473 1472 1471 1470 1468 1467 1466 1465 1463 1462 1461 1459 1457 1456 1454 1452 1450 1449 1447 1446 1444 1442 1441 1439 1438 1437 1435 1433 1432 1430 1428 1427 1425 1424 1422 1421
1505 1504 1502 1502 1501 1500 1499 1498 1498 1497 1496 1495 1495 1494 1493 1492 1491 1491 1490 1489 1488 1487 1486 1485 1483 1482 1481 1480 1479 1477 1477 1475 1474 1472 1471 1470 1469 1467 1466 1465 1463 1462 1461 1459 1458 1457 1455 1454 1452 1450 1448 1446 1444 1442 1441 1439 1437 1436 1434 1432 1431 1429 1427 1426 1425 1423 1422 1421 1420
1503 1502 1501 1500 1500 1499 1498 1497 1497 1496 1495 1494 1493 1492 1492 1491 1490 1489 1489 1488 1487 1486 1485 1484 1482 1481 1480 1479 1478 1477 1475 1474 1473 1472 1470 1469 1468 1466 1465 1464 1462 1461 1460 1458 1457 1456 1454 1453 1451 1449 1447 1445 1443 1441 1439 1437 1435 1433 1432 1430 1428 1427 1425 1424 1423 1422 1421 1420 1419
1502 1501 1500 1499 1498 1498 1497 1496 1496 1495 1494 1493 1492 1492 1491 1490 1489 1488 1487 1487 1486 1485 1484 1483 1482 1481 1479 1478 1477 1475 1474 1473 1472 1471 1469 1468 1467 1466 1464 1463 1462 1460 1459 1457 1456 1454 1453 1451 1450 1448 1446 1444 1442 1439 1437 1435 1433 1432 1430 1428 1427 1425 1424 1422 1422 1421 1420 1419 1418